Weather History for Montpelier, VT

Change the Weather History Date:

Sunday, March 16, 2014

  Actual Average Record
Temperature  
Mean Temperature 9 °F 29 °F  
Max Temperature 23 °F 39 °F 69 °F (1990)
Min Temperature -5 °F 19 °F -5 °F (2014)
Degree Days  
Heating Degree Days 56 36  
Month to date heating degree days 797 625  
Since 1 July heating degree days 6962 6533  
Cooling Degree Days 0 0  
Month to date cooling degree days 0 0  
Year to date cooling degree days 0 0  
Moisture  
Dew Point 7 °F    
Average Humidity 73    
Maximum Humidity 96    
Minimum Humidity 49    
Precipitation  
Precipitation 0.03 in 0.08 in 1.12 in (1974)
Month to date precipitation 1.35 1.18  
Year to date precipitation 5.66 5.67  
Sea Level Pressure  
Sea Level Pressure 30.07 in    
Wind  
Wind Speed 10 mph (NW)    
Max Wind Speed 18 mph    
Max Gust Speed 29 mph    
Visibility 5 miles    
Events Fog , Snow    
T = Trace of Precipitation, MM = Missing Value Source: NWS Daily Summary

Daily Weather History Graph

Daily Weather History Graph

Search for Another Location

Airport:

Trip Planner

Search our weather history database for the weather conditions in past years. The results will help you decide how hot, cold, wet, or windy it might be!

Date:

Astronomy

Mar. 16, 2014 Rise Set
Actual Time 7:00 AM EDT 6:57 PM EDT
Civil Twilight 6:31 AM EDT 7:26 PM EDT
Nautical Twilight 5:58 AM EDT 8:00 PM EDT
Astronomical Twilight 5:24 AM EDT 8:34 PM EDT
Moon 7:14 PM EDT (3/16) 6:42 AM EDT (3/16)
Length of Visible Light 12h 54m
Length of Day
11h 56m
Full, 100% of the Moon is Illuminated
Mar 16
Full
Mar 16
Full
Mar 23
Last Quarter
Mar 30
New
Apr 7
First Quarter

Hourly Weather History & Observations

Time (EDT) Temp. Windchill Dew Point Humidity Pressure Visibility Wind Dir Wind Speed Gust Speed Precip Events Conditions
12:11 AM 24.1 °F 16.0 °F 19.9 °F 84% 29.89 in 1.8 mi NW 6.9 mph - 0.00 in Snow Light Snow
12:23 AM 23.0 °F 13.1 °F 19.9 °F 88% 29.89 in 1.0 mi NW 9.2 mph - 0.00 in Snow Light Snow
12:51 AM 23.0 °F 14.7 °F 21.0 °F 92% 29.94 in 1.0 mi NW 6.9 mph - 0.00 in Snow Light Snow
1:06 AM 23.0 °F 13.1 °F 21.0 °F 92% 29.90 in 0.8 mi NNW 9.2 mph - 0.01 in Snow Light Snow
1:17 AM 21.9 °F 10.4 °F 19.9 °F 92% 29.90 in 0.5 mi North 11.5 mph - 0.02 in Fog , Snow Snow
1:37 AM 21.0 °F 9.9 °F 19.0 °F 92% 29.92 in 1.0 mi NNW 10.4 mph - 0.02 in Snow Light Snow
1:39 AM 21.0 °F 8.6 °F 19.0 °F 92% 29.92 in 1.2 mi NNW 12.7 mph - 0.02 in Snow Light Snow
1:46 AM 21.2 °F 7.8 °F 19.4 °F 93% 29.92 in 0.8 mi North 15.0 mph 20.7 mph 0.02 in Snow Light Snow
1:51 AM 21.0 °F 11.4 °F 19.0 °F 92% 29.97 in 0.8 mi North 8.1 mph 20.7 mph 0.02 in Snow Light Snow
2:00 AM 19.9 °F 10.1 °F 18.0 °F 92% 29.94 in 1.0 mi NNW 8.1 mph - 0.01 in Snow Light Snow
2:17 AM 19.0 °F 4.5 °F 17.1 °F 92% 29.94 in 0.5 mi North 16.1 mph 23.0 mph 0.01 in Fog , Snow Snow
2:33 AM 18.0 °F 9.8 °F 16.0 °F 92% 29.95 in 1.2 mi NNW 5.8 mph - 0.01 in Snow Light Snow
2:35 AM 18.0 °F 8.7 °F 16.0 °F 92% 29.95 in 1.5 mi Variable 6.9 mph - 0.01 in Snow Light Snow
2:40 AM 18.0 °F 9.8 °F 14.0 °F 84% 29.95 in 3.0 mi NNW 5.8 mph 18.4 mph 0.01 in Snow Light Snow
2:44 AM 17.1 °F 5.8 °F 12.9 °F 84% 29.95 in 5.0 mi NW 9.2 mph 18.4 mph 0.01 in Snow Light Snow
2:51 AM 17.1 °F 4.3 °F 12.0 °F 81% 30.01 in 6.0 mi NW 11.5 mph - 0.01 in Snow Light Snow
3:51 AM 16.0 °F 7.4 °F 10.9 °F 81% 30.02 in 5.0 mi NW 5.8 mph - 0.00 in Snow Light Snow
4:22 AM 15.1 °F 1.8 °F 10.9 °F 84% 29.98 in 2.0 mi NNW 11.5 mph - 0.00 in Snow Light Snow
4:29 AM 15.1 °F 3.3 °F 10.9 °F 84% 29.98 in 1.5 mi NNW 9.2 mph - 0.00 in Snow Light Snow
4:41 AM 15.1 °F 6.4 °F 10.9 °F 84% 29.98 in 2.0 mi NNW 5.8 mph - 0.00 in Snow Light Snow
4:51 AM 15.1 °F 2.5 °F 12.0 °F 88% 30.04 in 1.5 mi North 10.4 mph - 0.00 in Snow Light Snow
4:57 AM 14.0 °F 0.5 °F 10.9 °F 88% 29.99 in 1.0 mi NNW 11.5 mph 19.6 mph 0.00 in Snow Light Snow
5:04 AM 14.0 °F 1.2 °F 10.9 °F 88% 29.99 in 1.0 mi NNW 10.4 mph 19.6 mph 0.00 in Snow Light Snow
5:14 AM 14.0 °F 1.2 °F 10.0 °F 84% 30.00 in 1.2 mi NNW 10.4 mph 18.4 mph 0.00 in Snow Light Snow
5:22 AM 14.0 °F 2.9 °F 10.0 °F 84% 30.01 in 1.5 mi NW 8.1 mph 19.6 mph 0.00 in Snow Light Snow
5:51 AM 12.9 °F 3.8 °F 8.1 °F 81% 30.09 in 2.5 mi NW 5.8 mph 18.4 mph 0.00 in Snow Light Snow
6:02 AM 12.9 °F -0.2 °F 7.0 °F 77% 30.03 in 5.0 mi NNW 10.4 mph 23.0 mph 0.00 in Snow Light Snow
6:14 AM 12.0 °F -0.4 °F 6.1 °F 77% 30.04 in 5.0 mi NW 9.2 mph 20.7 mph 0.00 in   Haze
6:51 AM 10.9 °F -2.6 °F 3.9 °F 73% 30.12 in 8.0 mi NW 10.4 mph - 0.00 in   Mostly Cloudy
7:02 AM 10.0 °F -1.9 °F 6.1 °F 84% 30.06 in 1.8 mi NW 8.1 mph - 0.00 in Snow Light Snow
7:15 AM 10.0 °F -1.9 °F 7.0 °F 87% 30.07 in 1.2 mi NNW 8.1 mph - 0.00 in Snow Light Snow
7:28 AM 10.0 °F -2.9 °F 6.1 °F 84% 30.08 in 1.8 mi NW 9.2 mph - 0.00 in Snow Light Snow
7:33 AM 10.0 °F -2.9 °F 5.0 °F 80% 30.08 in 3.0 mi WNW 9.2 mph - 0.00 in Snow Light Snow
7:46 AM 8.6 °F -7.7 °F 1.4 °F 73% 30.09 in 7.0 mi NW 13.8 mph 24.2 mph 0.00 in   Mostly Cloudy
7:51 AM 9.0 °F -7.3 °F 1.0 °F 70% 30.16 in 8.0 mi WNW 13.8 mph 18.4 mph 0.00 in   Scattered Clouds
8:51 AM 8.1 °F -8.4 °F -0.9 °F 67% 30.18 in 7.0 mi NW 13.8 mph 26.5 mph 0.00 in   Mostly Cloudy
9:51 AM 9.0 °F -7.9 °F -0.9 °F 64% 30.20 in 7.0 mi NNW 15.0 mph 26.5 mph 0.00 in   Scattered Clouds
10:51 AM 10.0 °F -5.9 °F -2.0 °F 58% 30.23 in 8.0 mi NW 13.8 mph 21.9 mph 0.00 in   Mostly Cloudy
11:51 AM 10.0 °F -5.2 °F -2.9 °F 56% 30.24 in 10.0 mi NW 12.7 mph 21.9 mph 0.00 in   Overcast
12:51 PM 10.9 °F -1.8 °F -2.9 °F 54% 30.22 in 10.0 mi NNW 9.2 mph - 0.00 in   Overcast
1:51 PM 12.0 °F -2.0 °F -2.9 °F 51% 30.22 in 10.0 mi NNW 11.5 mph 23.0 mph 0.00 in   Mostly Cloudy
2:51 PM 12.0 °F -2.0 °F -0.9 °F 56% 30.22 in 9.0 mi NW 11.5 mph 23.0 mph 0.00 in   Mostly Cloudy
3:51 PM 12.9 °F -2.2 °F -2.0 °F 51% 30.22 in 10.0 mi NW 13.8 mph 23.0 mph 0.00 in   Partly Cloudy
4:51 PM 12.0 °F -3.4 °F -2.0 °F 53% 30.24 in 10.0 mi WNW 13.8 mph 21.9 mph 0.00 in   Partly Cloudy
5:51 PM 10.9 °F -2.6 °F -4.0 °F 51% 30.24 in 10.0 mi NNW 10.4 mph 18.4 mph N/A   Clear
6:51 PM 9.0 °F -0.9 °F -5.1 °F 53% 30.25 in 10.0 mi North 5.8 mph - N/A   Clear
7:51 PM 8.1 °F -5.3 °F -6.0 °F 53% 30.25 in 10.0 mi WNW 9.2 mph - N/A   Clear
8:51 PM 7.0 °F -3.3 °F -7.1 °F 53% 30.28 in 10.0 mi NW 5.8 mph - N/A   Clear
9:51 PM 6.1 °F -6.8 °F -9.0 °F 50% 30.29 in 10.0 mi WNW 8.1 mph - N/A   Clear
10:51 PM 3.0 °F -8.0 °F -9.9 °F 55% 30.30 in 10.0 mi NNW 5.8 mph - N/A   Clear
11:51 PM -0.0 °F - -9.9 °F 63% 30.28 in 10.0 mi Calm Calm - N/A   Clear